This demonstration page uses our WeatherBlox Daily Observations layout. Learn more.

Left ArrowRight Arrow

Hourly Observations for March 22, 2018

Temp ( °F °C ) Dew Point ( °F °C ) Humidity (%) Winds ( mph kmh ) Pressure ( in mb ) Visibility ( mi km ) Precip ( " mm )
12:15 am 00:15 Cloudy with Light Snow 32 undefined 32 undefined 100 100 N 6 9 29.91 1013 10 16 N/A
12:35 am 00:35 Cloudy 32 undefined 32 undefined 100 100 N 6 9 29.91 1013 10 16 N/A
12:55 am 00:55 Cloudy 32 undefined 32 undefined 100 100 NNW 7 11 29.91 1013 10 16 N/A
1:15 am 01:15 Cloudy 32 undefined 32 undefined 100 100 N 8 13 29.91 1013 10 16 N/A
1:35 am 01:35 Cloudy 32 undefined 32 undefined 100 100 NNW 9 15 29.91 1013 10 16 N/A
1:55 am 01:55 Cloudy 34 1 32 undefined 93 93 NNW 14 22 29.91 1013 10 16 N/A
2:15 am 02:15 Cloudy 34 1 32 undefined 93 93 NNW 13 20 29.91 1013 10 16 N/A
2:35 am 02:35 Cloudy 34 1 30 -1 87 87 N 12 19 29.91 1013 10 16 N/A
2:55 am 02:55 Cloudy 34 1 30 -1 87 87 NNW 18 30 29.91 1013 10 16 N/A
3:15 am 03:15 Cloudy 34 1 30 -1 87 87 NNW 17 28 29.91 1013 10 16 N/A
3:35 am 03:35 Mostly Cloudy 34 1 28 -2 81 81 NNW 14 22 29.91 1013 10 16 0.01 0.25
3:55 am 03:55 Partly Cloudy 34 1 28 -2 81 81 NNW 15 24 29.91 1013 10 16 0.01 0.25
4:15 am 04:15 Clear 34 1 27 -3 75 75 N 12 19 29.91 1013 10 16 N/A
4:35 am 04:35 Clear 34 1 27 -3 75 75 N 10 17 29.91 1013 10 16 N/A
4:55 am 04:55 Clear 34 1 27 -3 75 75 NNW 15 24 29.94 1014 10 16 N/A
5:15 am 05:15 Clear 34 1 27 -3 75 75 NNW 16 26 29.94 1014 10 16 N/A
5:35 am 05:35 Clear 32 undefined 27 -3 80 80 NNW 21 33 29.94 1014 10 16 N/A
5:55 am 05:55 Clear 32 undefined 27 -3 80 80 NNW 17 28 29.94 1014 10 16 N/A
6:15 am 06:15 Clear 32 undefined 25 -4 75 75 NNW 21 33 29.97 1015 10 16 N/A
6:35 am 06:35 Clear 32 undefined 25 -4 75 75 NW 17 28 29.97 1015 10 16 N/A
6:55 am 06:55 Clear 32 undefined 25 -4 75 75 NNW 17 28 29.97 1015 10 16 N/A
7:15 am 07:15 Sunny 32 undefined 23 -5 69 69 NNW 17 28 30.00 1016 10 16 N/A
7:35 am 07:35 Sunny 32 undefined 23 -5 69 69 NNW 14 22 30.00 1016 10 16 N/A
7:55 am 07:55 Sunny 32 undefined 23 -5 69 69 NNW 14 22 30.00 1016 10 16 N/A
8:15 am 08:15 Sunny 32 undefined 25 -4 75 75 NW 16 26 30.03 1017 10 16 N/A
8:35 am 08:35 Sunny 34 1 25 -4 70 70 NW 13 20 30.03 1017 10 16 N/A
8:55 am 08:55 Sunny 34 1 25 -4 70 70 NNW 14 22 30.03 1017 10 16 N/A
9:15 am 09:15 Sunny 34 1 23 -5 65 65 NNW 15 24 30.03 1017 10 16 N/A
9:35 am 09:35 Sunny 36 2 25 -4 65 65 NNW 18 30 30.03 1017 10 16 N/A
9:55 am 09:55 Hazy 36 2 25 -4 65 65 NNW 23 37 30.06 1018 5 8 N/A
10:15 am 10:15 Sunny 36 2 25 -4 65 65 NNW 22 35 30.06 1018 7 11 N/A
10:35 am 10:35 Sunny 37 3 25 -4 60 60 N 17 28 30.06 1018 10 16 N/A
10:55 am 10:55 Sunny 37 3 27 -3 65 65 NNW 18 30 30.06 1018 10 16 N/A
11:15 am 11:15 Sunny 37 3 25 -4 60 60 NNW 23 37 30.06 1018 10 16 0.01 0.25
11:35 am 11:35 Sunny 37 3 27 -3 65 65 NW 18 30 30.06 1018 10 16 0.02 0.51
11:55 am 11:55 Sunny 39 4 27 -3 61 61 NW 22 35 30.06 1018 10 16 0.03 0.76
12:15 pm 12:15 Sunny 39 4 27 -3 61 61 NNW 22 35 30.06 1018 10 16 0.01 0.25
12:35 pm 12:35 Sunny 41 5 25 -4 53 53 NNW 21 33 30.06 1018 10 16 0.03 0.76
12:55 pm 12:55 Sunny 41 5 27 -3 57 57 NNW 18 30 30.06 1018 10 16 0.06 1.52
1:15 pm 13:15 Sunny 41 5 27 -3 57 57 NNW 21 33 30.06 1018 10 16 0.03 0.76
1:35 pm 13:35 Sunny 41 5 27 -3 57 57 NNW 17 28 30.06 1018 10 16 0.07 1.78
1:55 pm 13:55 Sunny 43 6 28 -2 57 57 NW 17 28 30.06 1018 10 16 0.11 2.79
2:15 pm 14:15 Sunny 43 6 27 -3 53 53 NNW 20 31 30.06 1018 10 16 0.02 0.51
2:35 pm 14:35 Sunny 43 6 27 -3 53 53 NNW 17 28 30.06 1018 10 16 0.05 1.27
2:55 pm 14:55 Sunny 45 7 27 -3 49 49 NW 21 33 30.03 1017 10 16 0.07 1.78
3:15 pm 15:15 Sunny 45 7 27 -3 49 49 NNW 17 28 30.06 1018 10 16 0.02 0.51
3:35 pm 15:35 Sunny 45 7 27 -3 49 49 NW 13 20 30.03 1017 10 16 0.05 1.27
3:55 pm 15:55 Sunny 45 7 27 -3 49 49 NNW 14 22 30.03 1017 10 16 0.06 1.52
4:15 pm 16:15 Sunny 45 7 27 -3 49 49 NW 13 20 30.03 1017 10 16 0.01 0.25
4:35 pm 16:35 Sunny 45 7 27 -3 49 49 NW 17 28 30.06 1018 10 16 0.01 0.25
4:55 pm 16:55 Sunny 45 7 27 -3 49 49 WNW 21 33 30.06 1018 10 16 0.01 0.25
5:15 pm 17:15 Sunny 45 7 27 -3 49 49 NNW 15 24 30.06 1018 10 16 N/A
5:35 pm 17:35 Sunny 43 6 25 -4 49 49 NW 17 28 30.06 1018 10 16 N/A
5:55 pm 17:55 Sunny 43 6 25 -4 49 49 NW 14 22 30.06 1018 10 16 N/A
6:15 pm 18:15 Sunny 43 6 25 -4 49 49 NNW 17 28 30.06 1018 10 16 N/A
6:35 pm 18:35 Sunny 43 6 25 -4 49 49 NW 16 26 30.09 1019 10 16 N/A
6:55 pm 18:55 Sunny 43 6 27 -3 53 53 NNW 15 24 30.09 1019 10 16 N/A
7:15 pm 19:15 Sunny 41 5 27 -3 57 57 NW 15 24 30.09 1019 10 16 N/A
7:35 pm 19:35 Clear 41 5 27 -3 57 57 NW 16 26 30.09 1019 10 16 N/A
7:55 pm 19:55 Clear 41 5 27 -3 57 57 NNW 16 26 30.12 1020 10 16 N/A
8:15 pm 20:15 Clear 41 5 27 -3 57 57 NW 15 24 30.12 1020 10 16 N/A
8:35 pm 20:35 Clear 41 5 27 -3 57 57 NNW 13 20 30.12 1020 10 16 N/A
8:55 pm 20:55 Clear 41 5 27 -3 57 57 NW 17 28 30.12 1020 10 16 N/A
9:15 pm 21:15 Clear 41 5 27 -3 57 57 NW 15 24 30.12 1020 10 16 N/A
9:35 pm 21:35 Clear 41 5 27 -3 57 57 NNW 12 19 30.15 1021 10 16 N/A
9:55 pm 21:55 Clear 41 5 25 -4 53 53 NNW 9 15 30.15 1021 10 16 N/A
10:15 pm 22:15 Clear 41 5 23 -5 49 49 N 9 15 30.15 1021 10 16 N/A
10:35 pm 22:35 Clear 39 4 23 -5 52 52 NNW 14 22 30.15 1021 10 16 N/A
10:55 pm 22:55 Clear 39 4 23 -5 52 52 NNW 12 19 30.18 1022 10 16 N/A
11:15 pm 23:15 Clear 39 4 21 -6 48 48 NNW 14 22 30.18 1022 10 16 N/A
11:35 pm 23:35 Clear 39 4 23 -5 52 52 NNW 15 24 30.18 1022 10 16 N/A
11:55 pm 23:55 Clear 37 3 23 -5 56 56 NNW 15 24 30.18 1022 10 16 N/A

Powered by AerisWeather